Location: Crescent
(42.8242°N, 73.7329°W)
Time: 06:07:35
(UTC+00:00)

Explorer 7 - Pass Details

Date: 20 February 2026
Orbit: 430 x 542 km, 50.2° (Epoch: 5 March)

Event Time Altitude Azimuth Distance (km) Brightness Sun altitude
Rises 18:39:49 0° 227° (SW) 2,394 11.0 32.5°
Reaches altitude 10° 18:41:55 10° 223° (SW) 1,539 10.5 32.4°
Maximum altitude 18:45:18 56° 144° (SE) 533 7.5 32.1°
Drops below altitude 10° 18:48:49 10° 66° (ENE) 1,591 8.8 31.8°
Sets 18:51:01 0° 62° (ENE) 2,487 9.7 31.6°
